Regional Weather Roundup
Issued by NWS

Home | Current Version | Previous Version | Graphics & Text | Print | Product List | Glossary On
Versions: 1 2 3 4 5 6 7 8 9 10 11 12 13 14 15 16 17 18 19 20 21 22 23 24 25 26 27 28 29 30 31 32 33 34 35 36 37 38 39 40 41 42 43 44 45 46 47 48 49 50
000
ASUS45 KSLC 251010
RWRUT

UTAH REGIONAL WEATHER ROUNDUP
NATIONAL WEATHER SERVICE SALT LAKE CITY UT
300 AM MST SUN JAN 25 2015

UTZ001>011-023>025-251100-

NORTHERN UTAH

CITY           SKY/WX    TMP DP  RH WIND       PRES   REMARKS
BRIGHAM CITY   CLOUDY    33  30  89 CALM      30.48S
HILL AFB       CLOUDY    36  23  59 S3        30.46S
LOGAN          CLOUDY    32  30  92 CALM      30.47R
OGDEN          CLOUDY    35  27  72 CALM      30.46S
PROVO AIRPORT  CLOUDY    32  27  80 CALM      30.48R
SALT LAKE CITY CLOUDY    34  30  85 NW3       30.47R
VERNAL         MOCLDY    19  13  77 W5        30.40R WCI  12
WENDOVER       CLEAR     25  21  86 CALM      30.47S
HEBER CITY     MOCLDY    28  23  80 CALM      30.46R
WEST JORDAN    CLOUDY    36  28  75 W5        30.47R WCI  32

$$

UTZ012>022-026-027-251100-

SOUTHERN/CENTRAL UTAH

CITY           SKY/WX    TMP DP  RH WIND       PRES   REMARKS
BLANDING       CLEAR     28  19  68 NW3       30.35S
BRYCE CANYON   CLEAR     21  17  84 W6        30.38S WCI  13
CEDAR CITY     CLEAR     24  20  84 SE5       30.39R WCI  18
DELTA          CLOUDY    34  28  77 S5        30.43F WCI  30
MILFORD        CLOUDY    36  25  64 N10       30.41S WCI  28
MOAB/CYNLANDS  CLEAR     26  19  74 CALM      30.36F
PRICE          CLEAR     28  17  63 NE6       30.34S WCI  22
ST GEORGE      MOSUNNY   43  25  49 CALM      30.31S
KANAB          CLEAR     30  21  69 NE8       30.35S WCI  23

$$

REGIONAL REPORTS     COLORADO/ARIZONA

CITY           SKY/WX    TMP DP  RH WIND       PRES   REMARKS
CRAIG, CO        N/A     12   9  87 CALM      30.36R
GRAND JUNCTION MOCLDY    24  17  74 SE9       30.38R WCI  14
RIFLE          PTCLDY    22  15  75 SW3       30.40S
MONTROSE       MOCLDY    21  14  74 S9        30.41S WCI  11
CORTEZ         CLEAR     19  15  84 E3        30.28R
PAGE, AZ       NOT AVBL
GRAND CANYON   CLEAR     20  15  81 CALM      30.33R
KINGMAN        CLEAR     41  20  43 E8        30.24R
FLAGSTAFF      CLEAR     39  10  30 NE12G20   30.29S WCI  32

$$

REGIONAL REPORTS    NEVADA/IDAHO/WYOMING

CITY           SKY/WX    TMP DP  RH WIND       PRES   REMARKS
LAS VEGAS, NV  CLEAR     50  22  33 S5        30.22R
ELY            CLEAR     22  20  92 S7        30.44S WCI  13
ELKO           CLEAR     26  23  88 NE3       30.45S
POCATELLO, ID  CLOUDY    30  29  96 N5        30.46R WCI  25
BURLEY         CLOUDY    32  28  85 CALM      30.42S
EVANSTON, WY   MOCLDY    29  26  89 SW12      30.42S WCI  19
ROCK SPRINGS   CLEAR     31  26  82 SW24      30.31F WCI  17
KEMMERER       CLOUDY    32  30  93 W6        30.37F WCI  26

$$



USA.gov is the U.S. government's official web portal to all federal, state and local government web resources and services.